Find OneWeb SL0256

NORAD ID: 48974 Int'l Des: 2021-060 Owner: ONEWEBN Country: UK Constellation: oneweb operational
LEOCIRCULARPOLARONEWEB_TYPE

当前视图

正在加载3D地球...

About OneWeb SL0256

OneWeb SL0256 (NORAD 48974) is a oneweb constellation satellite launched Jul 1, 2021 by ONEWEBN of UK. It operates in LEO, CIRCULAR, POLAR, ONEWEB_TYPE orbit with a mass of 148.00 kg.

关于 OneWeb SL0256

正在加载描述...

即将过境

Passes for default location (London). Set your location on the main map for personalized predictions.

高度历史

Loading altitude history...

两行轨道根数

1 48974U 21060H 26178.17790698 -.00000049 00000-0 -16078-3 0 9992
2 48974 87.9084 226.7996 0002042 93.0793 267.0571 13.16593938240945
Epoch: Jun 27, 2026 • Age: 9 hours

当前状态

高度 1223.3 km
速度 7.24 km/s
星下点 -63.03°S, 56.75°W
发射日期 Jul 1, 2021
运行时间 4.9 years
类型 internet

技术详情

分类 Payload
质量 148.00 kg
干质量 140.00 kg
总质量 148.00 kg
长度 1.30 m
直径 1.00 m
跨度 5.00 m
形状 Trapezoid+2 pan
制造商 ONEWUS
平台类型 ARROW
阶段状态 In Orbit
所有者/国家 ONEWEBN/UK

Most Searched